Weather History for Abbeville, LA

Change the Weather History Date:

Tuesday, March 12, 2013

  Actual Average (KARA) Record (KARA)
Temperature  
Mean Temperature 12 °C 16 °C  
Max Temperature 19 °C 22 °C 27 °C (1985)
Min Temperature 4 °C 11 °C 0 °C (1996)
Degree Days  
Heating Degree Days 12 5  
Month to date heating degree days 73  
Since 1 July heating degree days 1289  
Cooling Degree Days 0 1  
Month to date cooling degree days 12  
Year to date cooling degree days 43  
Growing Degree Days 4 (Base 50)    
Moisture  
Dew Point 5 °C    
Average Humidity 68    
Maximum Humidity 100    
Minimum Humidity 33    
Precipitation  
Precipitation 0.51 mm 3.30 mm 3.23 mm (1951)
Month to date precipitation 1.58  
Year to date precipitation 10.99  
Sea Level Pressure  
Sea Level Pressure 1021 hPa    
Wind  
Wind Speed 5 km/h (NNW)    
Max Wind Speed 16 km/h    
Max Gust Speed 29 km/h    
Visibility 16 kilometers    
Events      
T = Trace of Precipitation, MM = Missing Value Source: NWS Daily Summary

Daily Weather History Graph

Daily Weather History Graph

Search for Another Location

Airport:

Trip Planner

Search our weather history database for the weather conditions in past years. The results will help you decide how hot, cold, wet, or windy it might be!

Date:

Astronomy

Mar. 12, 2013 Rise Set
Actual Time 7:21 AM CDT 7:14 PM CDT
Civil Twilight 6:57 AM CDT 7:38 PM CDT
Nautical Twilight 6:29 AM CDT 8:06 PM CDT
Astronomical Twilight 6:02 AM CDT 8:34 PM CDT
Moon 7:35 AM CDT (3/12) 8:21 PM CDT (3/12)
Length of Visible Light 12h 41m
Length of Day
11h 53m
New Moon, 1% of the Moon is Illuminated
Mar 12
New Moon
Mar 19
First Quarter
Mar 27
Full
Apr 2
Last Quarter
Apr 10
New

Hourly Weather History & Observations

Time (CDT) Temp. Windchill Dew Point Humidity Pressure Visibility Wind Dir Wind Speed Gust Speed Precip Events Conditions
12:15 AM 7.5 °C - 5.5 °C 87% 1018.5 hPa 16.1 km Calm Calm - N/A   Clear
12:55 AM 7.2 °C - 5.4 °C 88% 1018.2 hPa 16.1 km Calm Calm - N/A   Clear
1:15 AM 6.8 °C - 5.6 °C 92% 1018.2 hPa 16.1 km Calm Calm - N/A   Clear
1:35 AM 6.9 °C - 5.6 °C 91% 1018.5 hPa 16.1 km North - - N/A   Clear
1:55 AM 7.4 °C - 5.3 °C 87% 1018.5 hPa 16.1 km Calm Calm - N/A   Clear
2:15 AM 6.8 °C - 6.0 °C 95% 1018.8 hPa 16.1 km Calm Calm - N/A   Clear
2:35 AM 6.7 °C - 5.9 °C 95% 1018.8 hPa 16.1 km Calm Calm - N/A   Clear
2:55 AM 5.5 °C - 5.5 °C 100% 1018.8 hPa 16.1 km Calm Calm - N/A   Clear
3:15 AM 5.7 °C 4.7 °C 5.7 °C 100% 1018.5 hPa 16.1 km WNW 5.6 km/h / 1.5 m/s - N/A   Clear
3:35 AM 5.5 °C 3.9 °C 5.5 °C 100% 1018.5 hPa 16.1 km NW 7.4 km/h / 2.1 m/s - N/A   Clear
3:55 AM 5.1 °C 4.0 °C 5.1 °C 100% 1018.5 hPa 16.1 km WNW 5.6 km/h / 1.5 m/s - 0.3 mm   Clear
4:15 AM 5.1 °C 4.0 °C 5.1 °C 100% 1018.8 hPa 16.1 km WNW 5.6 km/h / 1.5 m/s - N/A   Clear
4:35 AM 5.2 °C 4.1 °C 5.2 °C 100% 1018.8 hPa 16.1 km WNW 5.6 km/h / 1.5 m/s - N/A   Clear
4:55 AM 5.2 °C 4.1 °C 5.2 °C 100% 1019.2 hPa 16.1 km WNW 5.6 km/h / 1.5 m/s - N/A   Clear
5:15 AM 5.1 °C 4.0 °C 5.1 °C 100% 1019.2 hPa 16.1 km WNW 5.6 km/h / 1.5 m/s - N/A   Clear
5:55 AM 5.2 °C - 5.2 °C 100% 1019.2 hPa 16.1 km North - - N/A   Clear
6:15 AM 5.5 °C - 5.5 °C 100% 1019.5 hPa 16.1 km North - - N/A   Clear
6:35 AM 5.5 °C - 5.5 °C 100% 1019.9 hPa 16.1 km Calm Calm - N/A   Clear
7:15 AM 5.4 °C - 5.4 °C 100% 1019.9 hPa 16.1 km North - - N/A   Clear
7:35 AM 5.2 °C - 5.2 °C 100% 1020.2 hPa 16.1 km North - - N/A   Clear
7:55 AM 4.9 °C - 4.9 °C 100% 1020.5 hPa 16.1 km Calm Calm - N/A   Clear
8:15 AM 6.3 °C - 6.3 °C 100% 1021.2 hPa 16.1 km Calm Calm - N/A   Clear
8:35 AM 8.2 °C - 8.2 °C 100% 1021.6 hPa 16.1 km North 5.6 km/h / 1.5 m/s - N/A   Clear
8:55 AM 9.9 °C - 7.9 °C 87% 1021.9 hPa 16.1 km North 5.6 km/h / 1.5 m/s - N/A   Clear
9:15 AM 11.0 °C - 6.1 °C 72% 1021.9 hPa 16.1 km NNE 9.3 km/h / 2.6 m/s - N/A   Clear
9:35 AM 11.9 °C - 5.3 °C 64% 1021.9 hPa 16.1 km NNE 11.1 km/h / 3.1 m/s - N/A   Clear
9:55 AM 12.5 °C - 4.9 °C 60% 1022.2 hPa 16.1 km NNE 13.0 km/h / 3.6 m/s - N/A   Clear
10:15 AM 13.2 °C - 4.2 °C 55% 1022.2 hPa 16.1 km NE 9.3 km/h / 2.6 m/s - N/A   Clear
10:35 AM 14.0 °C - 4.2 °C 52% 1022.6 hPa 16.1 km North 9.3 km/h / 2.6 m/s - N/A   Clear
10:55 AM 14.5 °C - 3.4 °C 47% 1022.6 hPa 16.1 km NNE 7.4 km/h / 2.1 m/s - 0.3 mm   Clear
11:15 AM 14.6 °C - 3.1 °C 46% 1022.6 hPa 16.1 km North 9.3 km/h / 2.6 m/s - N/A   Clear
11:35 AM 15.2 °C - 3.3 °C 45% 1022.9 hPa 16.1 km NE 11.1 km/h / 3.1 m/s - N/A   Clear
11:55 AM 15.5 °C - 2.8 °C 43% 1022.9 hPa 16.1 km North 11.1 km/h / 3.1 m/s - N/A   Clear
12:15 PM 15.9 °C - 2.4 °C 40% 1022.9 hPa 16.1 km North 7.4 km/h / 2.1 m/s - N/A   Clear
12:35 PM 16.4 °C - 2.7 °C 40% 1022.6 hPa 16.1 km NNE 11.1 km/h / 3.1 m/s - N/A   Clear
12:55 PM 17.1 °C - 3.0 °C 39% 1022.6 hPa 16.1 km North 9.3 km/h / 2.6 m/s - N/A   Clear
1:15 PM 17.3 °C - 3.4 °C 40% 1022.2 hPa 16.1 km North 14.8 km/h / 4.1 m/s - N/A   Clear
1:35 PM 17.9 °C - 3.5 °C 38% 1021.9 hPa 16.1 km NW 7.4 km/h / 2.1 m/s - N/A   Clear
1:55 PM 18.1 °C - 3.2 °C 37% 1021.6 hPa 16.1 km NW 13.0 km/h / 3.6 m/s - N/A   Clear
2:15 PM 18.3 °C - 3.0 °C 36% 1021.6 hPa 16.1 km North 14.8 km/h / 4.1 m/s - N/A   Clear
2:35 PM 19.1 °C - 3.8 °C 36% 1021.2 hPa 16.1 km NNW 7.4 km/h / 2.1 m/s 25.9 km/h / 7.2 m/s N/A   Clear
2:55 PM 19.1 °C - 3.3 °C 35% 1020.9 hPa 16.1 km North 7.4 km/h / 2.1 m/s 27.8 km/h / 7.7 m/s N/A   Clear
3:15 PM 19.4 °C - 3.8 °C 36% 1020.9 hPa 16.1 km NW 13.0 km/h / 3.6 m/s - N/A   Clear
3:35 PM 19.6 °C - 4.4 °C 37% 1020.5 hPa 16.1 km NW 11.1 km/h / 3.1 m/s - N/A   Clear
3:55 PM 19.7 °C - 4.9 °C 38% 1020.9 hPa 16.1 km North 14.8 km/h / 4.1 m/s - N/A   Clear
4:15 PM 19.5 °C - 3.4 °C 34% 1020.9 hPa 16.1 km WNW 7.4 km/h / 2.1 m/s - N/A   Clear
4:35 PM 19.8 °C - 3.7 °C 35% 1020.5 hPa 16.1 km NW 14.8 km/h / 4.1 m/s 29.6 km/h / 8.2 m/s N/A   Clear
4:55 PM 19.6 °C - 3.0 °C 33% 1020.5 hPa 16.1 km NW 11.1 km/h / 3.1 m/s - N/A   Clear
5:15 PM 19.7 °C - 3.7 °C 35% 1020.5 hPa 16.1 km NNW 11.1 km/h / 3.1 m/s - N/A   Clear
5:35 PM 19.3 °C - 3.4 °C 35% 1020.9 hPa 16.1 km NW 16.7 km/h / 4.6 m/s - N/A   Clear
5:55 PM 19.1 °C - 4.0 °C 37% 1021.2 hPa 16.1 km NW 14.8 km/h / 4.1 m/s - N/A   Clear
6:15 PM 18.7 °C - 4.4 °C 39% 1021.2 hPa 16.1 km NW 16.7 km/h / 4.6 m/s - N/A   Clear
6:35 PM 17.7 °C - 4.4 °C 41% 1021.6 hPa 16.1 km NW 13.0 km/h / 3.6 m/s - N/A   Clear
6:55 PM 15.5 °C - 5.5 °C 51% 1021.6 hPa 16.1 km NW 7.4 km/h / 2.1 m/s - N/A   Clear
7:15 PM 14.5 °C - 6.1 °C 57% 1021.9 hPa 16.1 km NW 11.1 km/h / 3.1 m/s - N/A   Clear
7:35 PM 14.1 °C - 6.0 °C 58% 1021.9 hPa 16.1 km NNW 7.4 km/h / 2.1 m/s - N/A   Clear
7:55 PM 13.5 °C - 6.1 °C 61% 1022.2 hPa 16.1 km Calm Calm - N/A   Clear
8:15 PM 13.5 °C - 6.0 °C 61% 1022.2 hPa 16.1 km Calm Calm - N/A   Clear
8:35 PM 13.1 °C - 6.6 °C 65% 1022.9 hPa 16.1 km Calm Calm - N/A   Clear
8:55 PM 12.1 °C - 7.3 °C 73% 1022.9 hPa 16.1 km NW 5.6 km/h / 1.5 m/s - N/A   Clear
9:15 PM 12.0 °C - 7.3 °C 73% 1022.9 hPa 16.1 km Calm Calm - N/A   Clear
9:35 PM 11.9 °C - 6.8 °C 71% 1023.2 hPa 16.1 km NNE 5.6 km/h / 1.5 m/s - N/A   Clear
9:55 PM 11.4 °C - 7.1 °C 75% 1023.6 hPa 16.1 km Calm Calm - N/A   Clear
10:35 PM 11.0 °C - 5.7 °C 70% 1023.9 hPa 16.1 km Calm Calm - N/A   Clear
10:55 PM 10.2 °C - 7.7 °C 85% 1023.9 hPa 16.1 km Calm Calm - N/A   Clear
11:15 PM 9.9 °C - 6.7 °C 81% 1023.9 hPa 16.1 km Calm Calm - N/A   Clear
11:35 PM 9.4 °C - 6.3 °C 81% 1024.3 hPa 16.1 km NW 5.6 km/h / 1.5 m/s - N/A   Clear
11:55 PM 8.5 °C - 6.7 °C 88% 1024.3 hPa 16.1 km Calm Calm - N/A   Clear